Погода в Безенчуке

Погода в Безенчуке : погода сейчас, прогноз погоды и архив. Всё, что Вы хотите узнать о погоде в Безенчуке!

Хотите узнать прогноз погоды в Безенчуке? Тогда Вам сюда: Погода в Безенчуке

Поиск расширенной информации на нашем сайте:

Другие новости

Новости СМИ2

Главная страница сайта

Новости сайта

03.07.2017

Напоминаем, что на нашем специализированном сайте Метеоцентр.Азия вы можете получить высокодетализированные автоматические прогнозы погоды по пунктам России, СНГ и мира в авиационном формате (включающие направление и скорость ветра, видимость, явления погоды, количество и форму облачности, нижнюю и верхнюю границу облачности).


Погода в Безенчуке - сегодня

Время (UTC), дата Ветер
(°,м/с) 
Видим.   Явления Облачность Т
(°С)
Тd
(°С)
f(%) Тe
(°С)
Pmin
(гПа)
dP
(гПа)
Po
(мм)
O2
(г/м3)
Тmin Tmax R s Состояние
почвы
18 16.06.18 330 (СЗ) 20000 м    ясно 
+15.4 +3.7 46 +17  1017.4  0.7  759  289           
21 16.06.18 300 (СЗ) 22000 м    ясно 
+9.7 +5.3 74 +10  1017.6  0.1  759  294           
00 17.06.18 280 (З) 20000 м    ясно 
+5.8 +4.5 91 +7  1017.9  0.2  759  299           
03 17.06.18 290 (З) 20000 м    ясно 
+12.7 +7 68 +14  1017.7  759  291  +4.6        сухая 
06 17.06.18 360 (С) 20000 м    ясно 
+20.6 +4.3 34 +21  1017  -0.5  758  284           
09 17.06.18 330 (СЗ) 20000 м    ясно 
+22.5 +3.5 29 +23  1015.5  -1.5  757  281           
18 17.06.18 350 (С) 20000 м    ясно 
+14.6 +7 60 +16  1013.9  0.4  756  288           
21 17.06.18 310 (СЗ) 23000 м    ясно 
+12.5 +6.4 66 +14  1013.8  -0.2  756  290           
00 18.06.18 260 (З) 20000 м    ясно 
+6.7 +5.1 90 +8  1014.2  0.3  756  297           
03 18.06.18 тихо ()   20000 м    ясно 
+15.3 +8.9 66 +15  1014.2  0.1  756  287  +6.2        сухая 
06 18.06.18 330 (СЗ) 20000 м    ясно 
+22.9 +6.8 35 +23  1013.4  -0.6  756  280           
09 18.06.18 330 (СЗ) 4{10}  20000 м    4/4 1000 м 
[Cu hum]
+25 +6.8 31 +25  1012.5  -0.8  755  278           
12 18.06.18 330 (СЗ) 20000 м    3/3 1000 м 
[Cu hum]
+26.6 +6 27 +27  1011.8  -0.7  755  276           
15 18.06.18 320 (СЗ) 2{10}  20000 м    3/1 1000 м верхняя 
[Cu hum|Ci fib]
+25.9 +6.1 28 +26  1011.2  -0.6  754  277    +26.9       
18 18.06.18 310 (СЗ) 20000 м    1/0 верхняя 
[Ci fib]
+17.8 +8.3 54 +19  1011.6  -0.6  754  284           
21 18.06.18 260 (З) 21000 м    ясно 
+11.5 +8.1 80 +13  1011.8  754  290           
00 19.06.18 260 (З) 20000 м    ясно 
+10.5 +7.2 80 +12  1012.1  0.2  755  292           
03 19.06.18 260 (З) 20000 м    ясно 
+16.7 +10.1 65 +19  1012.3  0.4  755  285  +8.8        сухая 
06 19.06.18 320 (СЗ) 20000 м    ясно 
+25.9 +7.6 31 +26  1011.9  -0.2  755  277           
09 19.06.18 350 (С) 20000 м    1/0 средняя 
[Ac cast]
+28.5 +6.1 24 +29  1011.3  -0.6  754  274           
12 19.06.18 360 (С) 20000 м    4/4 1000 м средняя 
[Cu hum|Ac trans]
+29.4 +6.6 24 +29  1010.3  -0.9  754  273           
18 19.06.18 тихо ()   20000 м    3/3 1000 м 
[Cu hum]
+19.6 +11.8 61 +23  1010.2  0.6  753  281           
21 19.06.18 230 (ЮЗ) 20000 м    4/0 средняя 
[Ac trans]
+17.3 +8.7 57 +19  1009.8  -0.4  753  284           
00 20.06.18 260 (З) 20000 м    8/0 средняя 
[Ac trans]
+16.4 +9.3 63 +18  1009.2  -0.6  753  284           
03 20.06.18 250 (З) 20000 м    1/0 верхняя 
[Ci fib]
+20.6 +12.1 58 +25  1008.7  -0.4  752  280  +13.3        сухая 
Время (UTC), дата Ветер
(°,м/с) 
Видим.   Явления Облачность Т
(°С)
Тd
(°С)
f(%) Тe
(°С)
Pmin
(гПа)
dP
(гПа)
Po
(мм)
O2
(г/м3)
Тmin Tmax R s Состояние
почвы

Для получения пояснительной информации подведите курсор к названию столбца.

ПОГОДА в Безенчуке - архив

Всё, что Вы хотите узнать о погоде в Безенчуке - удобно и подробно!

Выберите нужную дату (начиная с 1 января 2015* года) и нажмите кнопку "Найти".
Будут отображены архивные сводки погоды по пункту Безенчук, начиная с указанной даты.


Отображать данные в формате CSV (для использования в таблицах Excel)


Внимание! Наш архив погоды предназначен исключительно для личного некоммерческого использования в познавательных целях. Если Вам необходимы официальные справки о состоянии погоды (для производственных, юридических, коммерческих и т.п. целей), обращайтесь в органы Росгидромета.

*Примечание: данная дата относится к архиву по метеостанциям СССР (Россия, СНГ, Балтия).
Архив по метеостанциям Зарубежной Европы и Азии (кроме Китая) хранится 10 дней, по другим регионам земного шара (Китай, Африка, Америка, Австралия, Океания) - 1 день.

Безенчук - район местоположения метеостанции


Название, широта, долгота, высота метеостанции:
Безенчук 53°ш. 49.4°д. 46 м над ур. моря [Российская Федерация]

Дополнительная информация

В oтличие oт бoльшинства пoгoдных сайтoв мы публикуем пoдрoбную метеoинфoрмацию в детальнoм прoфессиoнальнoм фoрмате.

Характеристики температуры и влажнoсти вoздуха измеряются на высoте 2 м в тени вдали oт зданий и деревьев.
Скoрoсть ветра измеряется на высoте 10 м (на урoвне рoста челoвека скoрoсть ветра ниже в 1.5-2 раза). Если метеoстанция нахoдится в гoрoде или в лесу, тo скoрoсть ветра занижена на 2-4 м/с пo сравнению с oткрытым местoм. Скoрoсть ветра над акватoриями крупных рек и oзёр, а также на вершинах хoлмoв на 2-5 м/с выше, чем в oбычных услoвиях.
Атмoсфернoе давление в разных тoчках местнoсти мoжет значительнo oтличаться oт давления на метеoстанции, в зависимoсти oт услoвий рельефа (при пoдъёме на 10 м давление пoнижается примернo на 1 мм рт.ст.).